sat.trackr.live / text

‹ back to catalog

STARLINK-6270

NORAD 56421 · 2023-061AZ

PAYLOAD ACTIVE UNKNOWN

§ Identity

Operator
Country
US
Launch date
2023-05-04
Launch site
AFETR
Launch vehicle
Mass (kg)
RCS (m²)

Purposes: comms

External: N2YO · Heavens-Above · Gunter

§ Orbital elements

Epoch: 2026-09-20T10:45:52.332768Z

Period
94.27 min
Inclination
43.0051°
Eccentricity
0.0001488
Mean motion
15.27578099 rev/d
Perigee alt
482.0 km
Apogee alt
484.1 km
Semi-major
6,861.2 km
B*
1.6838e-5
RAAN
163.2386°
Arg perigee
274.9950°
Mean anomaly
85.0732°
Rev number
18,670

§ Raw data

STARLINK-62701 56421U 23061AZ  26263.44852237  .00000201  00000+0  16838-4 0  99962 56421  43.0051 163.2386 0001488 274.9950  85.0732 15.27578099186709

JSON: /api/v1/satellites/56421 · /tle

For live sub-satellite position, see the globe view (requires WebGL).

§ Visibility from observer

Set your observer location to see the next 7 days of passes ≥ 10°. The values pass through the URL so the page stays shareable.

No JS? Fill the form by hand. The geolocation button needs JavaScript.